| time (UTC) | temp F | wind direction | speed MPH | gust MPH | rain 1hr in | rain 24hr in | rain mn in | humidity % | barometer mb |
| 20260503173731 | 59 | 220 | 8.0 | 13.0 | 0.00 | 0.00 | 0.00 | 43 | 1017.5 |
| 20260503173231 | 59 | 228 | 9.0 | 11.0 | 0.00 | 0.00 | 0.00 | 41 | 1017.6 |
| 20260503172731 | 59 | 251 | 6.0 | 13.0 | 0.00 | 0.00 | 0.00 | 42 | 1017.7 |
| 20260503172231 | 59 | 221 | 7.0 | 9.0 | 0.00 | 0.00 | 0.00 | 41 | 1017.9 |
| 20260503171732 | 58 | 191 | 7.0 | 13.0 | 0.00 | 0.00 | 0.00 | 44 | 1017.9 |
| 20260503171231 | 58 | 219 | 5.0 | 8.0 | 0.00 | 0.00 | 0.00 | 43 | 1018.0 |
| 20260503170731 | 58 | 228 | 7.0 | 12.0 | 0.00 | 0.00 | 0.00 | 43 | 1018.1 |
| 20260503170231 | 58 | 231 | 8.0 | 11.0 | 0.00 | 0.00 | 0.00 | 43 | 1018.2 |
| 20260503150731 | 53 | 225 | 7.0 | 11.0 | 0.00 | 0.00 | 0.00 | 52 | 1019.6 |
| 20260503150233 | 53 | 216 | 9.0 | 14.0 | 0.00 | 0.00 | 0.00 | 52 | 1019.5 |
| 20260503140231 | 50 | 216 | 9.0 | 11.0 | 0.00 | 0.00 | 0.00 | 56 | 1019.4 |
| 20260503131231 | 46 | 219 | 6.0 | 9.0 | 0.00 | 0.00 | 0.00 | 67 | 1019.2 |
| 20260503130731 | 46 | 217 | 6.0 | 10.0 | 0.00 | 0.00 | 0.00 | 69 | 1019.3 |
| 20260503130231 | 46 | 198 | 4.0 | 5.0 | 0.00 | 0.00 | 0.00 | 70 | 1019.3 |
| 20260503110732 | 35 | 195 | 1.0 | 2.0 | 0.00 | 0.00 | 0.00 | 91 | 1018.6 |
| 20260503110231 | 35 | 188 | 1.0 | 2.0 | 0.00 | 0.00 | 0.00 | 91 | 1018.6 |
| 20260503100231 | 36 | 187 | 2.0 | 2.0 | 0.00 | 0.00 | 0.00 | 92 | 1018.1 |
| 20260503090231 | 34 | 194 | 1.0 | 2.0 | 0.00 | 0.00 | 0.00 | 97 | 1018.1 |
| 20260503081231 | 33 | 177 | 1.0 | 2.0 | 0.00 | 0.00 | 0.00 | 96 | 1018.0 |
| 20260503080731 | 33 | 0 | 0.0 | 0.0 | 0.00 | 0.00 | 0.00 | 96 | 1018.0 |
| 20260503080232 | 34 | 93 | 0.0 | 1.0 | 0.00 | 0.00 | 0.00 | 96 | 1017.9 |
| 20260503072732 | 33 | 137 | 0.0 | 1.0 | 0.00 | 0.00 | 0.00 | 95 | 1017.9 |
| 20260503072231 | 33 | 101 | 0.0 | 1.0 | 0.00 | 0.00 | 0.00 | 95 | 1017.9 |
| 20260503071731 | 33 | 116 | 0.0 | 1.0 | 0.00 | 0.00 | 0.00 | 95 | 1018.0 |
| 20260503071231 | 33 | 89 | 0.0 | 1.0 | 0.00 | 0.00 | 0.00 | 94 | 1018.0 |
| 20260503070731 | 33 | 98 | 0.0 | 1.0 | 0.00 | 0.00 | 0.00 | 94 | 1018.0 |
| 20260503070231 | 33 | 104 | 0.0 | 1.0 | 0.00 | 0.00 | 0.00 | 94 | 1018.0 |
| 20260503060231 | 34 | 126 | 0.0 | 1.0 | 0.00 | 0.00 | 0.00 | 92 | 1018.3 |
| 20260503054731 | 35 | 121 | 0.0 | 1.0 | 0.00 | 0.00 | 0.00 | 91 | 1018.4 |
| 20260503054231 | 35 | 131 | 0.0 | 1.0 | 0.00 | 0.00 | 0.00 | 91 | 1018.4 |
| 20260503053731 | 35 | 0 | 0.0 | 0.0 | 0.00 | 0.00 | 0.00 | 91 | 1018.4 |
| 20260503053231 | 35 | 0 | 0.0 | 0.0 | 0.00 | 0.00 | 0.00 | 91 | 1018.4 |
| 20260503052731 | 35 | 0 | 0.0 | 0.0 | 0.00 | 0.00 | 0.00 | 91 | 1018.4 |
| 20260503052231 | 35 | 119 | 0.0 | 1.0 | 0.00 | 0.00 | 0.00 | 91 | 1018.4 |
| 20260503051731 | 35 | 350 | 0.0 | 0.0 | 0.00 | 0.00 | 0.00 | 92 | 1018.4 |
| 20260503051231 | 35 | 53 | 0.0 | 1.0 | 0.00 | 0.00 | 0.00 | 92 | 1018.4 |
| 20260503050731 | 35 | 56 | 1.0 | 2.0 | 0.00 | 0.00 | 0.00 | 92 | 1018.4 |
| 20260503050231 | 35 | 87 | 0.0 | 1.0 | 0.00 | 0.00 | 0.00 | 92 | 1018.4 |
| 20260503045731 | 35 | 0 | 0.0 | 0.0 | 0.00 | 0.00 | 0.00 | 92 | 1018.4 |
| 20260503045231 | 35 | 117 | 0.0 | 1.0 | 0.00 | 0.00 | 0.00 | 92 | 1018.4 |
| 20260503044731 | 35 | 0 | 0.0 | 0.0 | 0.00 | 0.00 | 0.00 | 91 | 1018.3 |
| 20260503044231 | 35 | 127 | 0.0 | 1.0 | 0.00 | 0.00 | 0.00 | 91 | 1018.3 |
| 20260503043731 | 35 | 0 | 0.0 | 0.0 | 0.00 | 0.00 | 0.00 | 91 | 1018.3 |
| 20260503043232 | 35 | 128 | 0.0 | 1.0 | 0.00 | 0.00 | 0.00 | 91 | 1018.4 |
| 20260503042731 | 35 | 0 | 0.0 | 0.0 | 0.00 | 0.00 | 0.00 | 91 | 1018.4 |
| 20260503042232 | 35 | 0 | 0.0 | 0.0 | 0.00 | 0.00 | 0.00 | 90 | 1018.4 |
| 20260503041731 | 36 | 124 | 0.0 | 1.0 | 0.00 | 0.00 | 0.00 | 90 | 1018.4 |
| 20260503041231 | 36 | 130 | 0.0 | 0.0 | 0.00 | 0.00 | 0.00 | 90 | 1018.4 |
| 20260503040731 | 36 | 93 | 0.0 | 1.0 | 0.00 | 0.00 | 0.00 | 90 | 1018.4 |
| 20260503040231 | 36 | 88 | 0.0 | 1.0 | 0.00 | 0.00 | 0.00 | 90 | 1018.4 |
| 20260503035731 | 36 | 74 | 0.0 | 1.0 | 0.00 | 0.00 | 0.00 | 90 | 1018.4 |
| 20260503035231 | 36 | 58 | 0.0 | 1.0 | 0.00 | 0.00 | 0.00 | 89 | 1018.4 |
| 20260503034731 | 36 | 104 | 0.0 | 1.0 | 0.00 | 0.00 | 0.00 | 89 | 1018.4 |
| 20260503034231 | 36 | 135 | 0.0 | 1.0 | 0.00 | 0.00 | 0.00 | 89 | 1018.4 |
| 20260503033731 | 36 | 126 | 0.0 | 0.0 | 0.00 | 0.00 | 0.00 | 88 | 1018.4 |
| 20260503033231 | 36 | 126 | 0.0 | 1.0 | 0.00 | 0.00 | 0.00 | 88 | 1018.4 |
| 20260503032731 | 36 | 103 | 0.0 | 1.0 | 0.00 | 0.00 | 0.00 | 87 | 1018.4 |
| 20260503032231 | 36 | 147 | 0.0 | 0.0 | 0.00 | 0.00 | 0.00 | 87 | 1018.4 |
| 20260503031731 | 37 | 0 | 0.0 | 0.0 | 0.00 | 0.00 | 0.00 | 86 | 1018.5 |
| 20260503031231 | 37 | 0 | 0.0 | 0.0 | 0.00 | 0.00 | 0.00 | 86 | 1018.5 |
| 20260503030731 | 37 | 0 | 0.0 | 0.0 | 0.00 | 0.00 | 0.00 | 86 | 1018.5 |
| 20260503030231 | 38 | 58 | 1.0 | 1.0 | 0.00 | 0.00 | 0.00 | 85 | 1018.4 |
| 20260503025732 | 38 | 75 | 0.0 | 1.0 | 0.00 | 0.00 | 0.00 | 84 | 1018.5 |
| 20260503025232 | 38 | 102 | 0.0 | 1.0 | 0.00 | 0.00 | 0.00 | 83 | 1018.5 |
| 20260503024731 | 38 | 0 | 0.0 | 0.0 | 0.00 | 0.00 | 0.00 | 82 | 1018.5 |
| 20260503024231 | 38 | 89 | 0.0 | 1.0 | 0.00 | 0.00 | 0.00 | 82 | 1018.5 |
| 20260503023731 | 38 | 0 | 0.0 | 0.0 | 0.00 | 0.00 | 0.00 | 81 | 1018.5 |
| 20260503023231 | 39 | 0 | 0.0 | 0.0 | 0.00 | 0.00 | 0.00 | 80 | 1018.5 |
| 20260503022732 | 39 | 64 | 1.0 | 2.0 | 0.00 | 0.00 | 0.00 | 79 | 1018.5 |
| 20260503022232 | 39 | 99 | 0.0 | 1.0 | 0.00 | 0.00 | 0.00 | 78 | 1018.5 |
| 20260503021731 | 39 | 132 | 1.0 | 2.0 | 0.00 | 0.00 | 0.00 | 77 | 1018.4 |
| 20260503021231 | 39 | 0 | 0.0 | 0.0 | 0.00 | 0.00 | 0.00 | 75 | 1018.4 |
| 20260503020731 | 39 | 0 | 0.0 | 0.0 | 0.00 | 0.00 | 0.00 | 75 | 1018.3 |
| 20260503020231 | 40 | 0 | 0.0 | 0.0 | 0.00 | 0.00 | 0.00 | 73 | 1018.3 |
| 20260503015730 | 40 | 154 | 0.0 | 0.0 | 0.00 | 0.00 | 0.00 | 72 | 1018.3 |
| 20260503015231 | 41 | 0 | 0.0 | 0.0 | 0.00 | 0.00 | 0.00 | 71 | 1018.3 |
| 20260503014732 | 41 | 197 | 1.0 | 2.0 | 0.00 | 0.00 | 0.00 | 70 | 1018.3 |
| 20260503014231 | 42 | 167 | 0.0 | 2.0 | 0.00 | 0.00 | 0.00 | 67 | 1018.2 |
| 20260503013731 | 42 | 134 | 0.0 | 0.0 | 0.00 | 0.00 | 0.00 | 66 | 1018.2 |
| 20260503013231 | 43 | 0 | 0.0 | 0.0 | 0.00 | 0.00 | 0.00 | 66 | 1018.2 |
| 20260503012731 | 43 | 101 | 0.0 | 0.0 | 0.00 | 0.00 | 0.00 | 65 | 1018.1 |
| 20260503012231 | 44 | 0 | 0.0 | 0.0 | 0.00 | 0.00 | 0.00 | 63 | 1018.1 |
| 20260503011732 | 44 | 82 | 0.0 | 0.0 | 0.00 | 0.00 | 0.00 | 62 | 1018.0 |
| 20260503011230 | 44 | 49 | 0.0 | 1.0 | 0.00 | 0.00 | 0.00 | 61 | 1018.0 |
| 20260503010731 | 45 | 0 | 0.0 | 0.0 | 0.00 | 0.00 | 0.00 | 60 | 1017.9 |
| 20260503010231 | 45 | 60 | 0.0 | 1.0 | 0.00 | 0.00 | 0.00 | 60 | 1017.9 |
| 20260503005731 | 46 | 19 | 0.0 | 2.0 | 0.00 | 0.00 | 0.00 | 59 | 1017.9 |
| 20260503005231 | 46 | 57 | 0.0 | 2.0 | 0.00 | 0.00 | 0.00 | 57 | 1017.8 |
| 20260503004731 | 46 | 22 | 2.0 | 3.0 | 0.00 | 0.00 | 0.00 | 56 | 1017.8 |
| 20260503004231 | 47 | 14 | 2.0 | 4.0 | 0.00 | 0.00 | 0.00 | 56 | 1017.7 |
| 20260503003731 | 47 | 14 | 2.0 | 4.0 | 0.00 | 0.00 | 0.00 | 56 | 1017.8 |
| 20260503003231 | 47 | 17 | 1.0 | 2.0 | 0.00 | 0.00 | 0.00 | 56 | 1017.8 |
| 20260503002731 | 47 | 24 | 2.0 | 3.0 | 0.00 | 0.00 | 0.00 | 56 | 1017.8 |
| 20260503002232 | 47 | 328 | 2.0 | 4.0 | 0.00 | 0.00 | 0.00 | 55 | 1017.8 |
| 20260503001731 | 48 | 33 | 1.0 | 3.0 | 0.00 | 0.00 | 0.00 | 55 | 1017.7 |
| 20260503001231 | 48 | 13 | 3.0 | 6.0 | 0.00 | 0.00 | 0.00 | 54 | 1017.6 |
| 20260503000731 | 48 | 2 | 2.0 | 5.0 | 0.00 | 0.00 | 0.00 | 54 | 1017.6 |
| 20260503000233 | 48 | 340 | 2.0 | 5.0 | 0.00 | 0.00 | 0.00 | 53 | 1017.5 |
| 20260502235732 | 48 | 10 | 3.0 | 7.0 | 0.00 | 0.00 | 0.00 | 52 | 1017.5 |
| 20260502235232 | 49 | 2 | 4.0 | 7.0 | 0.00 | 0.00 | 0.00 | 52 | 1017.5 |
| 20260502234732 | 49 | 348 | 1.0 | 5.0 | 0.00 | 0.00 | 0.00 | 52 | 1017.5 |
| 20260502234231 | 49 | 15 | 3.0 | 5.0 | 0.00 | 0.00 | 0.00 | 52 | 1017.3 |
| 20260502233731 | 49 | 9 | 2.0 | 4.0 | 0.00 | 0.00 | 0.00 | 51 | 1017.3 |
| 20260502233231 | 50 | 26 | 2.0 | 4.0 | 0.00 | 0.00 | 0.00 | 51 | 1017.3 |
| 20260502232731 | 49 | 357 | 4.0 | 5.0 | 0.00 | 0.00 | 0.00 | 50 | 1017.2 |
| 20260502232231 | 49 | 14 | 5.0 | 7.0 | 0.00 | 0.00 | 0.00 | 50 | 1017.2 |
| 20260502231732 | 50 | 22 | 2.0 | 3.0 | 0.00 | 0.00 | 0.00 | 51 | 1017.3 |
| 20260502231231 | 50 | 358 | 1.0 | 2.0 | 0.00 | 0.00 | 0.00 | 50 | 1017.3 |
| 20260502230734 | 50 | 1 | 2.0 | 6.0 | 0.00 | 0.00 | 0.00 | 50 | 1017.2 |
| 20260502230231 | 50 | 355 | 4.0 | 7.0 | 0.00 | 0.00 | 0.00 | 50 | 1017.2 |
| 20260502225731 | 50 | 17 | 1.0 | 3.0 | 0.00 | 0.00 | 0.00 | 50 | 1017.2 |
| 20260502225231 | 50 | 348 | 2.0 | 3.0 | 0.00 | 0.00 | 0.00 | 49 | 1017.2 |
| 20260502224731 | 51 | 348 | 3.0 | 4.0 | 0.00 | 0.00 | 0.00 | 49 | 1017.2 |
| 20260502224231 | 51 | 7 | 2.0 | 4.0 | 0.00 | 0.00 | 0.00 | 48 | 1017.1 |
| 20260502223731 | 51 | 352 | 3.0 | 4.0 | 0.00 | 0.00 | 0.00 | 48 | 1017.0 |
| 20260502223232 | 51 | 19 | 3.0 | 4.0 | 0.00 | 0.00 | 0.00 | 48 | 1017.0 |
| 20260502222731 | 51 | 21 | 2.0 | 4.0 | 0.00 | 0.00 | 0.00 | 48 | 1017.1 |
| 20260502222231 | 51 | 328 | 2.0 | 4.0 | 0.00 | 0.00 | 0.00 | 48 | 1017.0 |
| 20260502221731 | 51 | 355 | 4.0 | 7.0 | 0.00 | 0.00 | 0.00 | 48 | 1017.0 |
| 20260502221231 | 51 | 10 | 4.0 | 8.0 | 0.00 | 0.00 | 0.00 | 48 | 1016.9 |
| 20260502220731 | 51 | 8 | 2.0 | 4.0 | 0.00 | 0.00 | 0.00 | 48 | 1017.0 |
| 20260502220231 | 52 | 355 | 5.0 | 7.0 | 0.00 | 0.00 | 0.00 | 47 | 1016.9 |
| 20260502215731 | 52 | 243 | 2.0 | 5.0 | 0.00 | 0.00 | 0.00 | 47 | 1016.9 |
| 20260502215232 | 52 | 7 | 2.0 | 6.0 | 0.00 | 0.00 | 0.00 | 47 | 1016.9 |
| 20260502214731 | 52 | 231 | 1.0 | 2.0 | 0.00 | 0.00 | 0.00 | 46 | 1016.9 |
| 20260502214231 | 51 | 193 | 3.0 | 4.0 | 0.00 | 0.00 | 0.00 | 47 | 1016.8 |
| 20260502213731 | 52 | 225 | 3.0 | 5.0 | 0.00 | 0.00 | 0.00 | 46 | 1016.8 |
| 20260502213231 | 52 | 349 | 2.0 | 4.0 | 0.00 | 0.00 | 0.00 | 46 | 1016.8 |
| 20260502212731 | 52 | 349 | 2.0 | 6.0 | 0.00 | 0.00 | 0.00 | 46 | 1016.8 |
| 20260502212231 | 52 | 356 | 3.0 | 6.0 | 0.00 | 0.00 | 0.00 | 47 | 1016.7 |
| 20260502211731 | 52 | 348 | 4.0 | 5.0 | 0.00 | 0.00 | 0.00 | 46 | 1016.8 |
| 20260502211231 | 51 | 359 | 2.0 | 4.0 | 0.00 | 0.00 | 0.00 | 46 | 1016.8 |
| 20260502210731 | 52 | 2 | 4.0 | 8.0 | 0.00 | 0.00 | 0.00 | 47 | 1016.8 |
| 20260502210231 | 52 | 6 | 3.0 | 7.0 | 0.00 | 0.00 | 0.00 | 46 | 1016.6 |
| 20260502205731 | 51 | 359 | 4.0 | 6.0 | 0.00 | 0.00 | 0.00 | 47 | 1016.6 |
| 20260502205231 | 51 | 344 | 3.0 | 6.0 | 0.00 | 0.00 | 0.00 | 47 | 1016.6 |
| 20260502204732 | 52 | 2 | 6.0 | 9.0 | 0.00 | 0.00 | 0.00 | 46 | 1016.7 |
| 20260502204231 | 52 | 1 | 3.0 | 5.0 | 0.00 | 0.00 | 0.00 | 45 | 1016.7 |
| 20260502203731 | 53 | 11 | 2.0 | 4.0 | 0.00 | 0.00 | 0.00 | 46 | 1016.7 |
| 20260502203231 | 53 | 358 | 3.0 | 5.0 | 0.00 | 0.00 | 0.00 | 46 | 1016.8 |
| 20260502202731 | 54 | 5 | 5.0 | 8.0 | 0.00 | 0.00 | 0.00 | 46 | 1016.7 |
| 20260502202232 | 53 | 217 | 3.0 | 9.0 | 0.00 | 0.00 | 0.00 | 47 | 1016.8 |
| 20260502201731 | 53 | 11 | 4.0 | 10.0 | 0.00 | 0.00 | 0.00 | 47 | 1016.7 |
| 20260502201231 | 53 | 22 | 2.0 | 4.0 | 0.00 | 0.00 | 0.00 | 46 | 1016.8 |
| 20260502200731 | 52 | 5 | 3.0 | 5.0 | 0.00 | 0.00 | 0.00 | 48 | 1016.8 |
| 20260502200231 | 51 | 6 | 2.0 | 5.0 | 0.00 | 0.00 | 0.00 | 47 | 1016.9 |
| 20260502195731 | 52 | 354 | 4.0 | 6.0 | 0.00 | 0.00 | 0.00 | 46 | 1017.0 |
| 20260502195231 | 52 | 20 | 2.0 | 6.0 | 0.00 | 0.00 | 0.00 | 46 | 1017.1 |
| 20260502194731 | 52 | 59 | 1.0 | 4.0 | 0.00 | 0.00 | 0.00 | 45 | 1017.0 |
| 20260502194231 | 52 | 39 | 2.0 | 5.0 | 0.00 | 0.00 | 0.00 | 46 | 1017.1 |
| 20260502193731 | 52 | 356 | 4.0 | 6.0 | 0.00 | 0.00 | 0.00 | 48 | 1017.1 |
| 20260502193231 | 52 | 0 | 4.0 | 6.0 | 0.00 | 0.00 | 0.00 | 47 | 1017.1 |
| 20260502192732 | 53 | 1 | 3.0 | 4.0 | 0.00 | 0.00 | 0.00 | 46 | 1017.2 |
| 20260502192231 | 53 | 263 | 5.0 | 11.0 | 0.00 | 0.00 | 0.00 | 47 | 1017.2 |
| 20260502191731 | 53 | 227 | 5.0 | 10.0 | 0.00 | 0.00 | 0.00 | 48 | 1017.2 |
| 20260502191231 | 53 | 15 | 4.0 | 7.0 | 0.00 | 0.00 | 0.00 | 46 | 1017.3 |
| 20260502190732 | 54 | 42 | 2.0 | 3.0 | 0.00 | 0.00 | 0.00 | 46 | 1017.3 |
| 20260502190231 | 53 | 249 | 2.0 | 6.0 | 0.00 | 0.00 | 0.00 | 50 | 1017.5 |
| 20260502185739 | 52 | 355 | 2.0 | 5.0 | 0.00 | 0.00 | 0.00 | 48 | 1017.5 |
| 20260502185231 | 52 | 203 | 2.0 | 4.0 | 0.00 | 0.00 | 0.00 | 47 | 1017.3 |
| 20260502184731 | 52 | 224 | 3.0 | 6.0 | 0.00 | 0.00 | 0.00 | 48 | 1017.6 |
| 20260502184232 | 53 | 356 | 4.0 | 8.0 | 0.00 | 0.00 | 0.00 | 47 | 1017.5 |
| 20260502183731 | 53 | 2 | 4.0 | 9.0 | 0.00 | 0.00 | 0.00 | 49 | 1017.5 |
| 20260502183231 | 52 | 254 | 2.0 | 5.0 | 0.00 | 0.00 | 0.00 | 47 | 1017.6 |
| 20260502182731 | 52 | 300 | 3.0 | 5.0 | 0.00 | 0.00 | 0.00 | 47 | 1017.6 |
| 20260502182231 | 53 | 0 | 3.0 | 4.0 | 0.00 | 0.00 | 0.00 | 48 | 1017.7 |
| 20260502181731 | 53 | 232 | 5.0 | 8.0 | 0.00 | 0.00 | 0.00 | 48 | 1017.7 |
| 20260502181232 | 53 | 262 | 5.0 | 9.0 | 0.00 | 0.00 | 0.00 | 49 | 1017.7 |
| 20260502180731 | 52 | 22 | 4.0 | 7.0 | 0.00 | 0.00 | 0.00 | 48 | 1017.7 |
| 20260502180231 | 52 | 83 | 2.0 | 5.0 | 0.00 | 0.00 | 0.00 | 49 | 1017.8 |